TA3MHA Weather Reports


time (UTC)temp
F
wind
direction
speed
knots
gust
knots
rain 1hr
in
rain 24hr
in
rain mn
in
humidity
%
barometer
mb
20260508063000 65 41 0.0 0.0 0.00 0.00 0.00 53
20260508062500 64 356 3.5 3.5 0.00 0.00 0.00 52
20260508061500 64 345 3.5 5.2 0.00 0.00 0.00 59
20260508061000 63 334 3.5 3.5 0.00 0.00 0.00 64
20260508060001 62 41 1.7 1.7 0.00 0.00 0.00 59
20260508055500 62 59 1.7 1.7 0.00 0.00 0.00 62
20260508055000 62 57 0.0 2.6 0.00 0.00 0.00 60
20260508054500 62 338 2.6 2.6 0.00 0.00 0.00 63
20260508054000 63 330 0.0 1.7 0.00 0.00 0.00 58
20260508053000 62 269 0.9 0.9 0.00 0.00 0.00 54
20260508052500 62 306 1.7 1.7 0.00 0.00 0.00 58
20260508052000 62 308 1.7 1.7 0.00 0.00 0.00 54
20260508051500 62 335 2.6 3.5 0.00 0.00 0.00 51
20260508051000 62 332 2.6 2.6 0.00 0.00 0.00 51
20260508050500 61 343 1.7 2.6 0.00 0.00 0.00 51
20260508050000 60 332 2.6 2.6 0.00 0.00 0.00 56
20260508045000 60 62 0.0 0.9 0.00 0.00 0.00 60
20260508040500 56 254 1.7 1.7 0.00 0.00 0.00 61
20260508040000 56 189 1.7 1.7 0.00 0.00 0.00 64
20260508035500 56 232 0.0 1.7 0.00 0.00 0.00 66
20260508035000 56 197 0.9 1.7 0.00 0.00 0.00 62
20260508034500 56 321 2.6 2.6 0.00 0.00 0.00 60
20260508034000 57 272 2.6 3.5 0.00 0.00 0.00 58
20260508033500 57 249 1.7 1.7 0.00 0.00 0.00 56
20260508033000 57 67 1.7 1.7 0.00 0.00 0.00 58
20260508032500 57 271 1.7 2.6 0.00 0.00 0.00 56
20260508032000 57 257 0.9 2.6 0.00 0.00 0.00 56
20260508031500 57 279 2.6 3.5 0.00 0.00 0.00 57
20260508031000 57 3 0.9 2.6 0.00 0.00 0.00 58
20260508030500 58 345 0.9 1.7 0.00 0.00 0.00 57
20260508030000 59 238 0.9 1.7 0.00 0.00 0.00 55
20260508025500 59 309 0.0 0.0 0.00 0.00 0.00 53
20260508025000 60 269 1.7 1.7 0.00 0.00 0.00 52
20260508024500 60 82 0.0 0.9 0.00 0.00 0.00 48
20260508024000 60 180 1.7 1.7 0.00 0.00 0.00 51
20260508023500 60 88 1.7 2.6 0.00 0.00 0.00 51
20260508023000 60 103 1.7 1.7 0.00 0.00 0.00 51
20260508022500 60 94 2.6 2.6 0.00 0.00 0.00 51
20260508022000 60 92 2.6 2.6 0.00 0.00 0.00 52
20260508021500 59 159 0.9 0.9 0.00 0.00 0.00 57
20260508021000 58 86 0.0 0.9 0.00 0.00 0.00 57
20260508020500 59 234 0.9 1.7 0.00 0.00 0.00 57
20260508020000 59 69 0.0 1.7 0.00 0.00 0.00 58
20260508015500 59 40 0.0 0.0 0.00 0.00 0.00 62
20260508015000 59 106 0.9 0.9 0.00 0.00 0.00 59
20260508014500 58 81 0.0 0.9 0.00 0.00 0.00 60
20260508014000 58 146 1.7 1.7 0.00 0.00 0.00 63
20260508013500 58 44 0.0 0.9 0.00 0.00 0.00 62
20260508013000 57 52 0.9 0.9 0.00 0.00 0.00 64
20260508012500 57 139 0.0 0.9 0.00 0.00 0.00 64
20260508012000 58 21 0.9 1.7 0.00 0.00 0.00 66
20260508011500 58 107 1.7 1.7 0.00 0.00 0.00 65
20260508011000 58 76 1.7 1.7 0.00 0.00 0.00 66
20260508010501 58 118 0.0 0.0 0.00 0.00 0.00 66
20260508010000 58 143 1.7 1.7 0.00 0.00 0.00 65
20260508005500 58 9 0.9 0.9 0.00 0.00 0.00 64
20260508005000 59 124 2.6 2.6 0.00 0.00 0.00 64
20260508004500 59 100 0.9 1.7 0.00 0.00 0.00 63
20260508004000 59 76 0.0 0.9 0.00 0.00 0.00 64
20260508003500 58 133 0.0 0.0 0.00 0.00 0.00 64
20260508003000 58 161 1.7 1.7 0.00 0.00 0.00 66
20260508002501 58 89 1.7 1.7 0.00 0.00 0.00 65
20260508002000 58 149 2.6 2.6 0.00 0.00 0.00 65
20260508001500 58 271 0.9 2.6 0.00 0.00 0.00 67
20260508001000 58 178 0.9 1.7 0.00 0.00 0.00 67
20260508000500 58 195 1.7 2.6 0.00 0.00 0.00 66
20260508000000 58 260 1.7 1.7 0.00 0.00 0.00 63
20260507235500 59 203 0.9 1.7 0.00 0.00 0.00 65
20260507235000 59 351 1.7 1.7 0.00 0.00 0.00 62
20260507234500 59 40 0.0 1.7 0.00 0.00 0.00 63
20260507234000 59 126 0.0 0.0 0.00 0.00 0.00 61
20260507233500 59 296 0.9 0.9 0.00 0.00 0.00 64
20260507233000 59 6 0.0 0.0 0.00 0.00 0.00 62
20260507232500 59 161 0.0 0.0 0.00 0.00 0.00 62
20260507232000 59 0 0.0 0.0 0.00 0.00 0.00 61
20260507231500 59 253 0.0 0.0 0.00 0.00 0.00 64
20260507231000 60 294 0.9 1.7 0.00 0.00 0.00 63
20260507230500 60 171 0.0 0.9 0.00 0.00 0.00 59
20260507230000 60 232 1.7 1.7 0.00 0.00 0.00 59
20260507225500 60 145 1.7 1.7 0.00 0.00 0.00 58
20260507225000 61 258 0.0 0.0 0.00 0.00 0.00 57
20260507224500 61 130 1.7 1.7 0.00 0.00 0.00 57
20260507224001 61 192 0.9 1.7 0.00 0.00 0.00 56
20260507223500 60 141 0.9 0.9 0.00 0.00 0.00 56
20260507223000 60 145 0.0 0.9 0.00 0.00 0.00 57
20260507222500 61 322 0.0 0.0 0.00 0.00 0.00 57
20260507222000 62 269 0.0 0.0 0.00 0.00 0.00 56
20260507221500 62 89 0.0 0.0 0.00 0.00 0.00 53
20260507221000 61 99 1.7 1.7 0.00 0.00 0.00 56
20260507220500 60 85 1.7 1.7 0.00 0.00 0.00 58
20260507220000 60 316 0.9 1.7 0.00 0.00 0.00 59
20260507215500 61 354 0.9 1.7 0.00 0.00 0.00 57
20260507215000 62 135 0.0 0.0 0.00 0.00 0.00 54
20260507214500 61 144 2.6 2.6 0.00 0.00 0.00 56
20260507214000 61 155 0.0 0.0 0.00 0.00 0.00 55
20260507213500 60 190 0.0 0.0 0.00 0.00 0.00 58
20260507213000 60 269 0.0 0.0 0.00 0.00 0.00 58
20260507212500 61 323 0.9 1.7 0.00 0.00 0.00 61
20260507212000 61 275 0.9 0.9 0.00 0.00 0.00 60
20260507211500 62 50 0.0 0.0 0.00 0.00 0.00 57
20260507211000 62 78 1.7 1.7 0.00 0.00 0.00 54
20260507210500 61 96 2.6 2.6 0.00 0.00 0.00 57
20260507210000 61 118 0.9 1.7 0.00 0.00 0.00 59
20260507205500 61 216 0.9 0.9 0.00 0.00 0.00 59
20260507205000 62 157 1.7 1.7 0.00 0.00 0.00 53
20260507204500 62 130 1.7 1.7 0.00 0.00 0.00 54
20260507204000 62 135 2.6 3.5 0.00 0.00 0.00 52
20260507203500 62 104 0.9 1.7 0.00 0.00 0.00 50
20260507203000 62 75 0.0 1.7 0.00 0.00 0.00 51
20260507202500 62 125 0.0 1.7 0.00 0.00 0.00 52
20260507202000 62 346 0.9 1.7 0.00 0.00 0.00 53
20260507201501 62 127 1.7 1.7 0.00 0.00 0.00 52
20260507201000 62 111 2.6 2.6 0.00 0.00 0.00 54
20260507200500 62 287 0.9 0.9 0.00 0.00 0.00 55
20260507200000 62 355 0.0 0.0 0.00 0.00 0.00 56
20260507195500 62 338 0.9 1.7 0.00 0.00 0.00 58
20260507195000 62 325 0.9 0.9 0.00 0.00 0.00 59
20260507194500 62 63 0.9 0.9 0.00 0.00 0.00 59
20260507194000 62 15 0.0 0.9 0.00 0.00 0.00 58
20260507193500 63 163 0.9 1.7 0.00 0.00 0.00 59
20260507193001 63 79 1.7 1.7 0.00 0.00 0.00 58
20260507192500 63 21 1.7 1.7 0.00 0.00 0.00 54
20260507192000 63 82 1.7 2.6 0.00 0.00 0.00 54
20260507191501 64 19 1.7 1.7 0.00 0.00 0.00 52
20260507191001 64 36 1.7 1.7 0.00 0.00 0.00 51
20260507190501 64 9 1.7 1.7 0.00 0.00 0.00 52
20260507190002 64 87 1.7 1.7 0.00 0.00 0.00 52
20260507185501 64 56 0.9 1.7 0.00 0.00 0.00 52
20260507185001 63 64 0.9 1.7 0.00 0.00 0.00 53
20260507184504 63 204 0.0 0.9 0.00 0.00 0.00 58
20260507184001 63 0 2.6 2.6 0.00 0.00 0.00 58
20260507183500 64 8 1.7 2.6 0.00 0.00 0.00 58
20260507183000 64 6 1.7 2.6 0.00 0.00 0.00 54
20260507182501 64 12 1.7 2.6 0.00 0.00 0.00 55
20260507182000 64 86 1.7 1.7 0.00 0.00 0.00 53
20260507181500 64 134 1.7 1.7 0.00 0.00 0.00 55
20260507181000 64 127 0.0 1.7 0.00 0.00 0.00 52
20260507180516 64 2 1.7 1.7 0.00 0.00 0.00 53
20260507180001 64 135 0.0 0.9 0.00 0.00 0.00 55
20260507175501 64 20 1.7 1.7 0.00 0.00 0.00 54
20260507175000 64 19 1.7 1.7 0.00 0.00 0.00 54
20260507174501 64 92 0.9 0.9 0.00 0.00 0.00 56
20260507174001 64 24 1.7 1.7 0.00 0.00 0.00 56
20260507173500 65 76 1.7 2.6 0.00 0.00 0.00 55
20260507173000 65 14 2.6 3.5 0.00 0.00 0.00 54
20260507172503 65 30 1.7 2.6 0.00 0.00 0.00 54
20260507172001 66 176 0.0 0.0 0.00 0.00 0.00 54
20260507171505 66 12 1.7 1.7 0.00 0.00 0.00 51
20260507171000 67 44 1.7 1.7 0.00 0.00 0.00 48
20260507170501 68 320 0.0 0.9 0.00 0.00 0.00 42
20260507170000 68 232 1.7 1.7 0.00 0.00 0.00 42
20260507165509 68 253 2.6 2.6 0.00 0.00 0.00 44
20260507165003 68 191 0.9 1.7 0.00 0.00 0.00 46
20260507164500 68 325 2.6 5.2 0.00 0.00 0.00 43
20260507164000 68 269 1.7 3.5 0.00 0.00 0.00 47
20260507163504 68 345 2.6 4.3 0.00 0.00 0.00 49
20260507163008 69 242 2.6 2.6 0.00 0.00 0.00 48
20260507162501 69 12 1.7 2.6 0.00 0.00 0.00 46
20260507162002 70 247 1.7 2.6 0.00 0.00 0.00 44
20260507161500 71 355 1.7 1.7 0.00 0.00 0.00 42
20260507161001 71 255 3.5 3.5 0.00 0.00 0.00 40
20260507160500 72 257 0.9 1.7 0.00 0.00 0.00 37
20260507160000 72 279 2.6 2.6 0.00 0.00 0.00 36
20260507155500 73 284 2.6 2.6 0.00 0.00 0.00 36
20260507155000 74 291 2.6 3.5 0.00 0.00 0.00 34
20260507154500 75 256 3.5 4.3 0.00 0.00 0.00 32
20260507154000 74 213 3.5 4.3 0.00 0.00 0.00 34
20260507153500 74 257 1.7 2.6 0.00 0.00 0.00 35
20260507153001 74 265 1.7 1.7 0.00 0.00 0.00 33
20260507152500 74 235 0.9 1.7 0.00 0.00 0.00 33
20260507152001 74 244 4.3 4.3 0.00 0.00 0.00 33
20260507151500 75 186 1.7 3.5 0.00 0.00 0.00 33
20260507151000 75 173 0.0 3.5 0.00 0.00 0.00 31
20260507150500 76 222 0.0 1.7 0.00 0.00 0.00 31
20260507150000 76 251 5.2 5.2 0.00 0.00 0.00 32
20260507145500 76 211 2.6 4.3 0.00 0.00 0.00 31
20260507145000 75 223 3.5 4.3 0.00 0.00 0.00 33
20260507144500 74 211 4.3 5.2 0.00 0.00 0.00 34
20260507144000 74 216 3.5 4.3 0.00 0.00 0.00 34
20260507143500 74 254 1.7 2.6 0.00 0.00 0.00 34
20260507143000 74 237 2.6 4.3 0.00 0.00 0.00 34
20260507142500 74 251 3.5 5.2 0.00 0.00 0.00 34
20260507142001 75 252 7.0 7.0 0.00 0.00 0.00 33
20260507141501 74 241 2.6 3.5 0.00 0.00 0.00 35
20260507141000 74 239 5.2 7.8 0.00 0.00 0.00 32
20260507140501 74 239 7.0 7.0 0.00 0.00 0.00 32
20260507140000 75 251 4.3 5.2 0.00 0.00 0.00 33
20260507135501 75 260 5.2 7.0 0.00 0.00 0.00 33
20260507135000 76 249 5.2 6.1 0.00 0.00 0.00 33
20260507134501 76 269 5.2 5.2 0.00 0.00 0.00 33
20260507134001 76 233 4.3 5.2 0.00 0.00 0.00 32
20260507133500 76 222 5.2 6.1 0.00 0.00 0.00 31
20260507133000 77 271 2.6 3.5 0.00 0.00 0.00 31
20260507132500 76 253 3.5 4.3 0.00 0.00 0.00 30
20260507132002 76 227 2.6 3.5 0.00 0.00 0.00 30
20260507131501 77 225 3.5 4.3 0.00 0.00 0.00 30
20260507131000 77 230 4.3 4.3 0.00 0.00 0.00 28
20260507130500 77 229 5.2 5.2 0.00 0.00 0.00 28
20260507130001 77 226 7.0 7.0 0.00 0.00 0.00 29
20260507125500 77 272 3.5 4.3 0.00 0.00 0.00 30
20260507125001 77 267 6.1 7.0 0.00 0.00 0.00 28
20260507124501 77 273 3.5 3.5 0.00 0.00 0.00 27
20260507124008 77 240 7.0 7.8 0.00 0.00 0.00 27
20260507123501 77 266 3.5 5.2 0.00 0.00 0.00 25
20260507123000 78 274 2.6 3.5 0.00 0.00 0.00 28
20260507122500 79 242 7.8 8.7 0.00 0.00 0.00 26
20260507122001 79 237 7.8 7.8 0.00 0.00 0.00 25
20260507121501 80 191 6.1 6.1 0.00 0.00 0.00 24
20260507121001 79 185 3.5 5.2 0.00 0.00 0.00 26
20260507120500 79 219 5.2 7.8 0.00 0.00 0.00 26
20260507120000 80 191 4.3 7.8 0.00 0.00 0.00 24
20260507115500 79 170 1.7 1.7 0.00 0.00 0.00 24
20260507115000 79 233 6.1 11.3 0.00 0.00 0.00 25
20260507114500 80 232 3.5 6.1 0.00 0.00 0.00 24
20260507114000 79 254 6.1 8.7 0.00 0.00 0.00 25
20260507113501 79 256 3.5 4.3 0.00 0.00 0.00 25
20260507113000 80 214 3.5 4.3 0.00 0.00 0.00 25
20260507112500 80 175 7.0 7.8 0.00 0.00 0.00 25
20260507112000 79 214 3.5 4.3 0.00 0.00 0.00 23
20260507111500 79 192 1.7 4.3 0.00 0.00 0.00 24
20260507111000 80 216 4.3 7.0 0.00 0.00 0.00 24
20260507110500 80 287 5.2 5.2 0.00 0.00 0.00 25
20260507110000 78 182 3.5 7.0 0.00 0.00 0.00 26
20260507105500 78 200 7.0 9.6 0.00 0.00 0.00 26
20260507105000 77 213 4.3 6.1 0.00 0.00 0.00 25
20260507104500 78 182 1.7 4.3 0.00 0.00 0.00 24
20260507104000 78 236 6.1 7.8 0.00 0.00 0.00 25
20260507103500 79 170 5.2 5.2 0.00 0.00 0.00 26
20260507103000 78 172 1.7 5.2 0.00 0.00 0.00 25
20260507102500 78 194 7.8 8.7 0.00 0.00 0.00 24
20260507102001 78 181 3.5 5.2 0.00 0.00 0.00 26
20260507101500 79 174 7.0 7.8 0.00 0.00 0.00 27
20260507101000 77 244 4.3 4.3 0.00 0.00 0.00 24
20260507100500 78 201 1.7 1.7 0.00 0.00 0.00 27
20260507100000 78 217 3.5 6.1 0.00 0.00 0.00 26
20260507095500 78 201 3.5 4.3 0.00 0.00 0.00 28
20260507095000 78 191 2.6 3.5 0.00 0.00 0.00 28
20260507094500 78 213 6.1 7.0 0.00 0.00 0.00 28
20260507094000 78 191 5.2 9.6 0.00 0.00 0.00 27
20260507093500 78 355 2.6 5.2 0.00 0.00 0.00 27
20260507093000 77 273 3.5 4.3 0.00 0.00 0.00 30
20260507092501 77 212 0.0 3.5 0.00 0.00 0.00 28
20260507092000 77 264 7.8 7.8 0.00 0.00 0.00 29
20260507091500 78 213 3.5 5.2 0.00 0.00 0.00 28
20260507091000 77 182 7.0 7.8 0.00 0.00 0.00 30
20260507090500 77 182 7.0 7.8 0.00 0.00 0.00 27
20260507090001 77 194 4.3 7.8 0.00 0.00 0.00 30
20260507085500 77 230 2.6 3.5 0.00 0.00 0.00 32
20260507085000 76 274 3.5 5.2 0.00 0.00 0.00 30
20260507084500 77 254 6.1 6.1 0.00 0.00 0.00 29
20260507084000 76 192 6.1 7.8 0.00 0.00 0.00 31
20260507083500 76 238 1.7 3.5 0.00 0.00 0.00 31
20260507083000 75 227 3.5 4.3 0.00 0.00 0.00 29
20260507082500 76 256 2.6 5.2 0.00 0.00 0.00 30
20260507082000 76 262 4.3 4.3 0.00 0.00 0.00 29
20260507081500 76 279 3.5 3.5 0.00 0.00 0.00 31
20260507081000 76 180 4.3 6.1 0.00 0.00 0.00 29
20260507080500 76 234 2.6 5.2 0.00 0.00 0.00 32
20260507080000 76 249 6.1 7.8 0.00 0.00 0.00 30
20260507075500 76 247 4.3 4.3 0.00 0.00 0.00 31
20260507075000 75 191 2.6 4.3 0.00 0.00 0.00 33
20260507074500 73 355 3.5 3.5 0.00 0.00 0.00 39
20260507074000 72 8 2.6 2.6 0.00 0.00 0.00 47
20260507073500 73 10 1.7 1.7 0.00 0.00 0.00 37
20260507073000 71 276 1.7 5.2 0.00 0.00 0.00 47
20260507072500 70 352 5.2 5.2 0.00 0.00 0.00 49
20260507072000 69 33 3.5 4.3 0.00 0.00 0.00 49
20260507071500 69 358 3.5 4.3 0.00 0.00 0.00 50
20260507071000 69 6 5.2 5.2 0.00 0.00 0.00 51
20260507070500 68 14 1.7 2.6 0.00 0.00 0.00 50
20260507070000 68 17 2.6 2.6 0.00 0.00 0.00 49
20260507065500 68 3 1.7 2.6 0.00 0.00 0.00 50
20260507065000 68 7 3.5 3.5 0.00 0.00 0.00 50
20260507064500 68 13 0.9 1.7 0.00 0.00 0.00 52
20260507064000 68 18 2.6 2.6 0.00 0.00 0.00 52
20260507063500 67 26 1.7 3.5 0.00 0.00 0.00 54